Total_Precipitation_Accumulation
0.86 0.83 0.75 0.74 0.67 0.72 0.79 0.82 0.73 0.63 0.58 0.50 0.45 0.46 0.45 0.44 0.48 0.49 0.52 0.47 0.56 0.68 0.73 0.65 0.52 0.38 0.29 0.31 0.37 0.42 0.49 0.55 0.59 0.59 0.51 0.43 0.36 0.24 0.15 0.13 0.12 0.14 0.14
0.92 0.88 0.82 0.83 0.80 0.80 0.90 0.86 0.73 0.68 0.62 0.53 0.44 0.43 0.43 0.44 0.48 0.45 0.47 0.53 0.57 0.59 0.73 0.81 0.75 0.52 0.40 0.37 0.40 0.46 0.50 0.49 0.50 0.50 0.47 0.45 0.40 0.32 0.24 0.20 0.20 0.17 0.15
0.83 0.85 0.84 0.84 0.88 0.96 1.00 1.01 0.81 0.74 0.60 0.51 0.46 0.40 0.36 0.37 0.35 0.39 0.34 0.33 0.40 0.53 0.67 0.80 0.81 0.66 0.54 0.48 0.45 0.43 0.43 0.43 0.46 0.42 0.39 0.37 0.34 0.32 0.29 0.26 0.27 0.25 0.24
0.75 0.88 0.88 0.85 0.88 0.99 1.06 1.09 0.96 0.84 0.69 0.58 0.58 0.51 0.43 0.39 0.36 0.38 0.38 0.31 0.34 0.36 0.51 0.59 0.65 0.66 0.61 0.55 0.50 0.41 0.34 0.32 0.32 0.33 0.32 0.29 0.25 0.24 0.23 0.26 0.29 0.30 0.29
0.82 0.97 1.06 1.06 1.07 1.07 1.04 0.99 1.00 0.93 0.79 0.70 0.66 0.63 0.56 0.45 0.43 0.39 0.40 0.37 0.29 0.29 0.35 0.31 0.37 0.41 0.47 0.50 0.51 0.47 0.37 0.30 0.27 0.27 0.25 0.22 0.17 0.15 0.16 0.19 0.21 0.23 0.25
1.17 1.29 1.28 1.35 1.40 1.25 1.18 1.10 1.09 1.03 0.89 0.84 0.77 0.65 0.58 0.51 0.50 0.48 0.47 0.42 0.37 0.31 0.31 0.25 0.27 0.23 0.27 0.35 0.43 0.50 0.42 0.34 0.29 0.25 0.22 0.19 0.15 0.12 0.12 0.14 0.15 0.17 0.20
1.51 1.70 1.65 1.67 1.66 1.50 1.44 1.51 1.65 1.58 1.29 1.03 0.96 0.79 0.62 0.49 0.50 0.49 0.46 0.44 0.41 0.43 0.42 0.34 0.26 0.23 0.18 0.20 0.25 0.40 0.49 0.41 0.37 0.32 0.27 0.21 0.16 0.12 0.11 0.11 0.13 0.15 0.16
1.42 1.55 1.78 1.83 1.73 1.71 1.81 1.85 2.11 2.20 1.79 1.39 1.29 1.32 1.04 0.82 0.56 0.42 0.43 0.42 0.42 0.55 0.49 0.35 0.28 0.21 0.18 0.16 0.12 0.20 0.35 0.43 0.41 0.36 0.31 0.27 0.21 0.13 0.09 0.08 0.10 0.12 0.14
1.38 1.46 1.61 1.75 1.74 1.78 1.83 1.93 2.23 2.62 2.35 1.89 1.63 1.73 1.39 1.17 0.96 0.54 0.38 0.39 0.43 0.54 0.58 0.50 0.41 0.34 0.25 0.23 0.18 0.16 0.17 0.25 0.37 0.34 0.36 0.34 0.25 0.15 0.12 0.10 0.12 0.13 0.14
1.27 1.33 1.46 1.59 1.68 1.69 1.79 1.85 1.95 2.38 2.65 2.36 2.08 1.72 1.39 1.24 1.23 0.97 0.61 0.48 0.53 0.54 0.58 0.56 0.50 0.48 0.42 0.36 0.33 0.20 0.17 0.18 0.31 0.38 0.41 0.41 0.33 0.23 0.20 0.18 0.18 0.17 0.15
1.38 1.37 1.50 1.56 1.55 1.60 1.69 1.96 2.18 2.42 2.56 2.49 2.38 2.20 1.98 1.65 1.21 1.21 1.12 0.83 0.69 0.62 0.61 0.61 0.59 0.55 0.52 0.50 0.52 0.34 0.22 0.16 0.21 0.37 0.48 0.51 0.44 0.33 0.27 0.24 0.22 0.20 0.17
1.48 1.53 1.58 1.55 1.51 1.54 1.63 1.81 2.04 2.26 2.52 2.65 2.53 2.32 2.18 1.97 1.66 1.49 1.25 1.12 1.02 0.82 0.80 0.78 0.69 0.64 0.64 0.68 0.69 0.64 0.34 0.16 0.15 0.24 0.41 0.54 0.56 0.46 0.37 0.31 0.25 0.23 0.22
1.37 1.40 1.51 1.62 1.68 1.69 1.77 1.91 2.01 1.93 2.14 2.48 2.43 2.29 2.18 1.92 1.83 1.82 1.63 1.35 1.17 0.86 0.77 0.78 0.74 0.79 0.72 0.67 0.83 0.97 0.53 0.27 0.19 0.21 0.27 0.32 0.40 0.49 0.51 0.46 0.39 0.31 0.27
1.32 1.26 1.30 1.41 1.54 1.69 1.71 1.74 1.72 1.66 1.79 2.00 2.07 2.25 2.35 2.08 1.88 1.71 1.58 1.57 1.31 1.06 0.88 0.78 0.68 0.69 0.71 0.69 0.85 0.98 0.64 0.45 0.28 0.23 0.25 0.27 0.27 0.29 0.39 0.47 0.50 0.44 0.40
1.08 1.01 1.01 1.05 1.12 1.19 1.24 1.39 1.47 1.54 1.57 1.68 1.81 1.95 2.11 2.21 2.11 1.84 1.72 1.63 1.51 1.30 1.11 0.98 0.82 0.65 0.74 0.82 0.97 0.80 0.65 0.65 0.49 0.33 0.25 0.25 0.24 0.21 0.23 0.27 0.33 0.35 0.38
1.00 0.93 0.89 0.84 0.80 0.77 0.80 0.98 1.17 1.27 1.37 1.50 1.66 1.77 1.81 1.89 2.08 2.04 1.84 1.75 1.61 1.41 1.24 1.05 0.95 0.80 0.87 0.86 0.97 0.79 0.78 0.85 0.62 0.45 0.32 0.28 0.25 0.20 0.16 0.15 0.14 0.14 0.16
0.98 0.96 0.88 0.82 0.88 0.86 0.81 0.86 0.92 0.98 1.06 1.18 1.31 1.41 1.53 1.80 2.12 2.15 2.10 1.95 1.78 1.58 1.30 1.15 0.92 0.77 0.94 1.01 0.99 0.87 0.83 0.79 0.63 0.57 0.45 0.36 0.30 0.24 0.20 0.15 0.11 0.10 0.09
0.67 0.75 0.83 0.78 0.77 0.79 0.79 0.84 0.86 0.90 0.92 0.99 1.07 1.17 1.30 1.60 1.97 2.19 2.28 2.18 2.00 1.81 1.62 1.46 1.15 0.85 0.87 1.11 1.24 1.16 0.96 0.83 0.75 0.73 0.65 0.52 0.41 0.33 0.26 0.21 0.16 0.14 0.10
0.50 0.54 0.63 0.63 0.72 0.78 0.80 0.81 0.82 0.86 0.88 0.96 1.09 1.13 1.15 1.32 1.53 1.77 1.96 2.07 2.05 2.01 1.92 1.67 1.41 1.14 1.00 1.04 1.25 1.25 1.13 1.08 0.96 0.91 0.92 0.83 0.69 0.56 0.44 0.35 0.29 0.22 0.17
0.51 0.57 0.70 0.74 0.69 0.66 0.71 0.81 0.83 0.78 0.77 0.82 0.89 0.96 1.03 1.06 1.19 1.36 1.50 1.69 1.89 2.08 2.12 1.95 1.69 1.42 1.27 1.09 1.12 1.24 1.30 1.22 1.14 1.00 0.97 0.93 0.92 0.83 0.68 0.55 0.45 0.36 0.32
0.57 0.58 0.69 0.80 0.87 0.82 0.78 0.86 0.82 0.80 0.80 0.78 0.82 0.81 0.86 0.88 0.92 1.07 1.13 1.36 1.68 1.92 2.00 2.03 1.90 1.62 1.39 1.19 0.96 0.99 1.19 1.37 1.35 1.27 1.26 1.10 1.01 0.91 0.83 0.77 0.70 0.60 0.51
0.47 0.47 0.50 0.58 0.67 0.72 0.91 0.87 0.70 0.67 0.71 0.76 0.81 0.80 0.81 0.74 0.73 0.76 0.87 1.01 1.30 1.49 1.60 1.64 1.64 1.50 1.33 1.18 1.09 1.05 1.06 1.13 1.20 1.13 1.13 1.20 1.16 1.06 1.00 0.92 0.95 0.96 0.86
0.40 0.38 0.37 0.37 0.44 0.59 0.67 0.51 0.49 0.54 0.66 0.76 0.82 0.85 0.82 0.77 0.79 0.79 0.76 0.76 0.84 1.02 1.20 1.38 1.40 1.30 1.36 1.26 1.15 1.06 1.05 1.01 0.95 1.04 1.08 1.12 1.14 1.11 1.07 1.07 1.11 1.04 0.97
0.30 0.29 0.36 0.44 0.46 0.47 0.52 0.42 0.42 0.52 0.71 0.82 0.81 0.76 0.81 0.82 0.86 0.90 0.79 0.81 0.77 0.79 0.87 0.92 1.06 1.26 1.38 1.51 1.45 1.31 1.29 1.23 1.14 1.11 1.10 1.09 1.01 0.97 0.94 0.95 1.00 0.89 0.81
0.34 0.37 0.48 0.56 0.49 0.41 0.44 0.45 0.51 0.66 0.78 0.86 0.82 0.81 0.87 0.88 1.01 1.02 0.90 0.94 0.90 0.85 0.83 0.93 1.04 1.14 1.22 1.32 1.41 1.38 1.32 1.26 1.19 1.10 1.01 0.96 0.91 0.88 0.88 0.82 0.81 0.82 0.73
0.31 0.38 0.40 0.38 0.38 0.43 0.49 0.46 0.58 0.77 0.90 1.00 0.95 0.94 1.11 1.04 1.00 0.92 0.88 1.01 0.99 0.83 0.74 0.77 0.83 0.91 0.94 1.03 1.13 1.13 1.18 1.20 1.13 1.05 0.87 0.80 0.84 0.84 0.88 0.79 0.72 0.69 0.66